Location: Aula-Vintri
(58.3875°N, 22.4322°E)
Time: 18:14:19
(UTC+00:00)

ARGOS - Pass Details

Date: 13 October 2019
Orbit: 820 x 835 km, 98.5° (Epoch: 14 November)

Event Time Altitude Azimuth Distance (km) Brightness Sun altitude
Exits shadow 16:30:05 - 108° (ESE) 2,565 5.1 -8.4°
Reaches altitude 10° 16:30:27 10° 106° (ESE) 2,448 5.0 -8.5°
Maximum altitude 16:34:54 27° 51° (NE) 1,569 4.2 -9.1°
Drops below altitude 10° 16:39:22 10° 356° (N) 2,462 5.7 -9.7°
Sets 16:42:03 0° 344° (NNW) 3,400 6.6 -10.0°
